Regional Weather Roundup
Issued by NWS

Home | Current Version | Previous Version | Text Only | Print | Product List | Glossary On
Versions: 1 2 3 4 5 6 7 8 9 10 11 12 13 14 15 16 17 18 19 20 21 22 23 24 25 26 27 28 29 30 31 32 33 34 35 36 37 38 39 40 41 42 43 44 45 46 47 48 49 50
000
ASUS43 KLOT 292109
RWRIL

ILLINOIS REGIONAL WEATHER ROUNDUP
NATIONAL WEATHER SERVICE CHICAGO/ROMEOVILLE IL
400 PM CDT MON MAY 29 2017

NOTE: "FAIR" INDICATES FEW OR NO CLOUDS BELOW 12,000 FEET WITH NO
SIGNIFICANT WEATHER AND/OR OBSTRUCTIONS TO VISIBILITY.

* THESE STATIONS ARE NOT UNDER NWS QUALITY CONTROL. THEY ALSO MAY NOT
  REPORT WEATHER SUCH AS PRECIPITATION OR FOG.

ILZ001-002-007-009-015-016-024-292200-
NORTHWEST ILLINOIS

CITY           SKY/WX    TMP DP  RH WIND       PRES   REMARKS
MOLINE         MOSUNNY   76  43  30 W20G33    29.87F
STERLING*      MOSUNNY   72  45  37 W23G32    29.85S
SAVANNA*       MOSUNNY   73  46  38 NW14G22   29.85F
$$

ILZ003-004-008-010-011-017-018-292200-
NORTH CENTRAL ILLINOIS

CITY           SKY/WX    TMP DP  RH WIND       PRES   REMARKS
ROCKFORD       MOSUNNY   72  46  39 W17G30    29.85F
FREEPORT*      PTSUNNY   69  47  44 W16G25    29.86F
ROCHELLE*      PTSUNNY   71  46  40 W25       29.86S
DE KALB*       MOSUNNY   72  46  38 W24G33    29.86S
PERU*          SUNNY     74  42  30 W25G39    29.86S
$$

ILZ005-006-012>014-019>023-292200-
NORTHEAST ILLINOIS

CITY           SKY/WX    TMP DP  RH WIND       PRES   REMARKS
CHICAGO-OHARE  MOSUNNY   75  43  31 W22G30    29.82S
CHICAGO-MIDWAY MOSUNNY   77  41  27 W22G32    29.82F
AURORA         MOSUNNY   75  44  33 W29G36    29.84F
LANSING*       SUNNY     77  49  37 W18G25    29.84R
JOLIET*        SUNNY     78  42  27 W13G24    29.85S
WAUKEGAN       MOSUNNY   72  46  39 W12G24    29.80F
DUPAGE AIRPORT MOSUNNY   73  43  33 W24G32    29.83F
KANKAKEE*      PTSUNNY   78  46  32 W18G25    29.86S
WHEELING       PTSUNNY   74  43  32 W22G30    29.83S
MORRIS*        SUNNY     77  40  26 W21G37    29.84S
ROMEOVILLE*    SUNNY     78  47  34 W25G31    29.84S
NORTHERLY ISL    N/A     75  36  24 SW13        N/A
$$

LMZ740>746-292200-
SOUTHERN LAKE MICHIGAN

STATION/POSITION SKY/WX   TEMP    WIND        PRES    VSBY  WAVE
                          AIR SEA DIR/SP/G                  HT/PER
                          (F)     (DEG/KT/KT) (MB)    (MI)  (FT/S)
SOUTHERN BUOY              55 48  310/  8/  8 1010.0          1/ 3
WILMETTE HARBOR            66 54  270/ 16/ 21   N/A           3/ 3
HARRISON CRIB              74     250/ 23/ 29   N/A
BURNHAM HARBOR             75     250/ 15/ 21   N/A
CALUMET HARBOR             77     240/ 11/ 18 1009.5F
BURNS HARBOR               67     280/ 12/ 18 1010.5S
MICHIGAN CITY              65     250/ 12/ 13   N/A
MICHIGAN CITY 6N           61 57  260/  6/  8   N/A           2/ 4
ST. JOSEPH                 61 60  300/  6/ 10 1010.3          1/ 2
$$

ILZ025>027-034>036-040-047-049-050-058-095>099-292200-
WEST-CENTRAL ILLINOIS

CITY           SKY/WX    TMP DP  RH WIND       PRES   REMARKS
QUINCY         SUNNY     77  48  35 W13       29.92F
GALESBURG*     MOSUNNY   75  44  32 W15G26    29.88F
MACOMB*        SUNNY     78  41  26 NW20G26   29.92S
JACKSONVILLE*  MOSUNNY   80  49  33 W17G23    29.90S
PITTSFIELD*    SUNNY     79  50  36 W12G18    29.92F
$$

ILZ028>032-037-038-041>044-048-051>054-059>061-292200-
CENTRAL ILLINOIS

CITY           SKY/WX    TMP DP  RH WIND       PRES   REMARKS
PONTIAC        PTSUNNY   79  43  28 W16G23    29.87S
BLOOMINGTON    MOSUNNY   77  49  37 W15G21    29.90R
DECATUR        CLOUDY    79  47  32 W10G20    29.88F
PEORIA         MOSUNNY   78  44  29 W13       29.88F
LACON*         PTSUNNY   75  43  31 W9G21     29.86S
LINCOLN*       MOSUNNY   80  48  33 W10       29.89S
SPRINGFIELD    SUNNY     83  52  34 NW16G22   29.89S HX  82
TAYLORVILLE    CLOUDY    82  45  27 W10       29.88S HX  80
$$

ILZ033-039-045-046-055>057-062-063-292200-
EAST-CENTRAL ILLINOIS

CITY           SKY/WX    TMP DP  RH WIND       PRES   REMARKS
CHAMPAIGN      PTSUNNY   83  44  25 W23       29.87F HX  81
RANTOUL*       PTSUNNY   82  45  26 W20G25    29.87F HX  81
MATTOON        CLOUDY    80  48  32 W8        29.88F
PARIS*         PTSUNNY   80  49  33 W10       29.89S
$$

ILZ079-100>102-292200-
SOUTHWEST ILLINOIS

CITY           SKY/WX    TMP DP  RH WIND       PRES   REMARKS
ALTON          PTSUNNY   82  50  32 SW14      29.89F HX  81
BELLEVILLE     MOSUNNY   85  48  27 SW16      29.90F HX  83
CAHOKIA*       MOSUNNY   86  46  24 W13G23    29.89F HX  83
SPARTA*        SUNNY     84  47  27 SW10      29.93F HX  82
$$

ILZ064>066-069>071-074>076-080>082-084>086-088>090-092>094-292200-
SOUTH-CENTRAL ILLINOIS

CITY           SKY/WX    TMP DP  RH WIND       PRES   REMARKS
CARBONDALE     SUNNY     85  52  32 SW12      29.92F HX  83
CAIRO*         CLOUDY    84  58  40 SW8       29.94F HX  83
EFFINGHAM*     MOSUNNY   82  51  34 SW7       29.91F HX  80
MARION         MOSUNNY   84  54  34 SW6       29.94F HX  83
MT. VERNON       N/A     85  49  28 VRB7      29.92F HX  83
CENTRALIA*     SUNNY     85  50  29 SW14      29.90F HX  83
SALEM*         SUNNY     85  43  22 SW12G20   29.91F HX  83
METROPOLIS*    CLOUDY    84  55  35 W9        29.94F HX  83
$$

ILZ067-068-072-073-078-083-087-091-292200-
SOUTHEAST ILLINOIS

CITY           SKY/WX    TMP DP  RH WIND       PRES   REMARKS
LAWRENCEVILLE  SUNNY     85  45  24 W13       29.90F HX  82
FLORA*         SUNNY     85  44  23 SW13      29.91F HX  82
FAIRFIELD*     SUNNY     84  44  25 SW7       29.90F HX  81
HARRISBURG*    MOSUNNY   84  56  37 SW13G20   29.93F HX  83
ROBINSON*      SUNNY     85  42  22 W10G17    29.91S HX  82
CARMI*         SUNNY     85  47  26 SW16      29.91F HX  83
$$

ABBREVIATIONS USED IN REMARKS
   TC - TEMPERATURE IN CELSIUS
  WCI - WIND CHILL INDEX
   HX - HEAT INDEX
  VSB - VISIBILITY
$$





USA.gov is the U.S. government's official web portal to all federal, state and local government web resources and services.